Flag for Germany Weather past 2 weeks in Königswinter, North Rhine-Westphalia, Germany

Now
67 °F

Overcast.


Feels Like: 67 °F
Forecast: 49 / 71 °F
Wind: 1 mph from North

Location: Bonn-Hangelar

Current Time: Oct 2, 2014 at 5:31:00 PM

Latest Report: Oct 2, 2014 at 5:00 PM


Visibility: 9 mi

Pressure: 30.34 "Hg

Humidity: 64%

Dew point: 55 °F

Location of KönigswinterLocation

Historic Weather in Königswinter — Graph

°F

Königswinter temperature yesterday

Maximum temperature yesterday: 68 °F (at 4:00 PM)
Minimum temperature yesterday: 56 °F (at 8:00 AM)
Average temperature yesterday: 61 °F

Past Weeks' High & Low Weather Summary

 TemperatureHumidityPressure
High75 °F (Sep 17, 6:00 PM)98% (Sep 21, 4:00 AM)30.40 "Hg (Sep 21, 4:00 AM)
Low44 °F (Sep 23, 5:00 AM)53% (Sep 17, 6:00 PM)29.80 "Hg (Sep 18, 6:00 PM)
Average60 °F82%30.12 "Hg
* Reported Sep 17 4:00 PM — Oct 2 4:00 PM, Königswinter, Weather by CustomWeather, © 2014

Note: Actual official high and low records may vary slightly from our data, if they occured in-between our weather recording intervals... More about our weather records

Advertising

Königswinter weather history for previous 24 hours

 ConditionsComfort  
Time TempWeatherWind HumidityBarometerVisibility
4:00 PM
Oct 2
67 °FOvercast.2 mph69%30.35 "Hg7 mi
3:00 PM66 °FOvercast.2 mph72%30.36 "Hg7 mi
2:00 PM65 °FPartly sunny.2 mph74%30.37 "Hg7 mi
1:00 PM65 °FOvercast.2 mph78%30.38 "Hg9 mi
12:00 PM63 °FPartly sunny.2 mph81%30.39 "Hg9 mi
11:00 AM61 °FOvercast.2 mph84%30.40 "Hg9 mi
10:00 AM60 °FOvercast.2 mph82%30.40 "Hg8 mi
9:00 AM57 °FOvercast.1 mph89%30.39 "Hg9 mi
8:00 AM58 °FOvercast.2 mph87%30.38 "Hg9 mi
7:00 AM55 °FPassing clouds.3 mph90%30.38 "Hg9 mi
6:00 AM55 °FPassing clouds.3 mph90%30.38 "Hg9 mi
5:00 AM58 °FOvercast.5 mph85%30.37 "Hg7 mi
4:00 AM57 °FOvercast.2 mph88%30.37 "Hg6 mi
3:00 AM58 °FOvercast.2 mph85%30.37 "Hg7 mi
2:00 AM58 °FPassing clouds.8 mph86%30.37 "Hg2 mi
1:00 AM57 °FPassing clouds.3 mph87%30.37 "Hg5 mi
12:00 AM58 °FPassing clouds.3 mph84%30.37 "Hg6 mi
11:00 PM
Oct 1
57 °FOvercast.3 mph86%30.37 "Hg7 mi
10:00 PM59 °FClear.2 mph80%30.36 "Hg9 mi
9:00 PM59 °FPassing clouds.2 mph79%30.35 "Hg11 mi
8:00 PM60 °FPassing clouds.2 mph79%30.34 "Hg11 mi
7:00 PM64 °FPassing clouds.2 mph71%30.32 "Hg16 mi
6:00 PM66 °FPassing clouds.3 mph68%30.31 "Hg17 mi
5:00 PM67 °FScattered clouds.5 mph65%30.31 "Hg17 mi
Weather by CustomWeather, © 2014

See weather overviewHow to use our weather pages